FREGAT DEB, 46006

Orbit data source: Space-Track

FREGAT DEB, 46006 is space debris in LEO originally from a launch on Mon, 18 Jul 2011 UTC launched from the Tyuratam Missile And Space Complex (TTMTR). Debris objects in space refer to the collection of defunct objects orbiting the Earth. Examples of debris include non-operational satellites, rocket bodies, and fragments generated from explosions, collisions, or faulty payload assembly.

Loading next visibility...
Identifier
46006, 2011-037HH
Orbit
LEO
Country
Flag of CISCIS
Related business
Manufacturer
Lavochkin
Mission
Spacecraft
Bus & Motor
Unknown
Mass
Unknown
Launch date (UTC)
2011-07-18 (15 years ago)
Launch vehicle
Unknown
Launch site
Tyuratam Missile And Space Complex (TTMTR)
Object type
Payload
Rocket body
Debris
Shape & HBR
Unknown shape, 0.1 m
Radar Cross Section
Medium (>0.1 m² and <1 m²)

Expand to show TLE details & history
Last TLE update: 19 hours ago

TLE from 19 hours ago
0 FREGAT DEB
1 46006U 11037HH  26256.20945705  .00010507  00000-0  61481-3 0  9997
2 46006  51.3959 191.4045 1575580 139.1035 233.9458 12.21669418261594
Epoch: 2026-09-13T05:01Z
TLE epoch observation values (Epoch: 2026-09-13T05:01:37.089Z)
Latitude
0.00004°
Longitude
123.79261°
Altitude
2,436.7 km
Speed
6.357 km/s
True Right ascension
12h 45m 37s
True Declination
0° 00' 00"
Sunlit
Object was in daylight at epoch
Visualization orbit readout
Latitude
Unknown
Longitude
Unknown
Altitude
Unknown
Speed
Unknown
Apparent Right ascension
Unknown
Apparent Declination
Unknown
Sunlit
N/A
Visualization observer readout
Local Sidereal Time
16:54:49
Azimuth
Unknown
Elevation
Unknown
Doppler factor
Unknown
Orbital elements
Apogee altitude
2,840.542 km
Perigee altitude
330.989 km
Semi-major axis
7,963.902 km
Eccentricity
0.15756
Inclination
51.3959°
RAAN
191.4045°
Arg. of periapsis
139.1035°
True anomaly
220.98018°
Mean anomaly
233.9458°
Eccentric anomaly
227.31032°
Mean motion
3.0539 °/min
Orbital period
117.88 mins
BSTAR
0.00061481
Loading maneuver chart data...
Computing Atmospheric mass density...
Loading historical data...
Loading historical data...
Loading historical data...
Loading historical data...
Loading historical data...
Loading historical data...
Loading historical data...

Documentation

Showing up to 5 results
|